This is the latest recevied weather packets stored in our database for station/object N3DXC. If no packets are shown the sender has not sent any weather packets the latest 1 day(s).
| Time | Temp. | Humidity | Pressure | Rain* | Wind** | Luminosity | Snow |
|---|---|---|---|---|---|---|---|
| 1777979691 | 16.67° C | 61% | 1009.6 hPa | 0 mm | 7.15 m/s, 247° | - | - |
| 1777979394 | 16.67° C | 62% | 1009.5 hPa | 0 mm | 4.02 m/s, 226° | - | - |
| 1777979090 | 16.11° C | 62% | 1009.4 hPa | 0 mm | 7.6 m/s, 232° | - | - |
| 1777978790 | 16.11° C | 63% | 1009.4 hPa | 0 mm | 3.58 m/s, 226° | - | - |
| 1777978490 | 16.11° C | 64% | 1009.4 hPa | 0 mm | 4.47 m/s, 244° | - | - |
| 1777978190 | 16.11° C | 65% | 1009.3 hPa | 0 mm | 3.58 m/s, 255° | - | - |
| 1777977890 | 16.11° C | 65% | 1009.2 hPa | 0 mm | 4.02 m/s, 233° | - | - |
| 1777977590 | 16.11° C | 65% | 1009.2 hPa | 0 mm | 5.81 m/s, 232° | - | - |
| 1777977290 | 15.56° C | 66% | 1009.1 hPa | 0 mm | 4.92 m/s, 205° | - | - |
| 1777976990 | 15.56° C | 66% | 1009.1 hPa | 0 mm | 5.36 m/s, 215° | - | - |
| 1777976691 | 15.56° C | 66% | 1009.1 hPa | 0 mm | 4.02 m/s, 216° | - | - |
| 1777976391 | 15.56° C | 66% | 1008.9 hPa | 0 mm | 3.13 m/s, 237° | - | - |
| 1777976091 | 15.56° C | 66% | 1008.9 hPa | 0 mm | 3.13 m/s, 206° | - | - |
| 1777975790 | 15.56° C | 66% | 1008.8 hPa | 0 mm | 3.13 m/s, 215° | - | - |
| 1777975490 | 15.56° C | 66% | 1008.8 hPa | 0 mm | 2.24 m/s, 243° | - | - |
| 1777975191 | 15.56° C | 66% | 1008.8 hPa | 0 mm | 3.58 m/s, 208° | - | - |
| 1777974891 | 15.56° C | 66% | 1008.8 hPa | 0 mm | 3.13 m/s, 213° | - | - |
| 1777974590 | 15.56° C | 65% | 1008.8 hPa | 0 mm | 3.58 m/s, 233° | - | - |
| 1777974291 | 15.56° C | 65% | 1008.7 hPa | 0 mm | 3.58 m/s, 196° | - | - |
| 1777973991 | 15.56° C | 65% | 1008.7 hPa | 0 mm | 4.47 m/s, 215° | - | - |
| 1777973691 | 15.56° C | 65% | 1008.9 hPa | 0 mm | 2.68 m/s, 246° | - | - |
| 1777973391 | 15.56° C | 64% | 1008.8 hPa | 0 mm | 3.13 m/s, 201° | - | - |
| 1777973091 | 15.56° C | 64% | 1008.7 hPa | 0 mm | 4.92 m/s, 223° | - | - |
| 1777972791 | 15.56° C | 64% | 1008.7 hPa | 0 mm | 4.47 m/s, 225° | - | - |
| 1777972491 | 15.56° C | 64% | 1008.7 hPa | 0 mm | 5.36 m/s, 213° | - | - |
* Rain latest hour (hover to see other rain measurements)
** Current wind speed in m/s (hover to see current wind gust speed)